| time (UTC) | temp C | wind direction | speed KPH | gust KPH | rain 1hr cm | rain 24hr cm | rain mn cm | humidity % | barometer mb |
| 20260505153047 | 0 | 349 | 6.4 | 14.5 | 0.00 | 0.18 | 0.08 | 94 | 1007.2 |
| 20260505151545 | 0 | 16 | 4.8 | 16.1 | 0.00 | 0.18 | 0.08 | 94 | 1007.2 |
| 20260505124522 | 1 | 354 | 4.8 | 11.3 | 0.03 | 0.18 | 0.08 | 94 | 1005.2 |
| 20260505123015 | 2 | 322 | 3.2 | 12.9 | 0.03 | 0.18 | 0.08 | 94 | 1004.8 |
| 20260505121528 | 2 | 4 | 6.4 | 14.5 | 0.03 | 0.18 | 0.08 | 94 | 1004.5 |
| 20260505120008 | 3 | 71 | 4.8 | 11.3 | 0.00 | 0.15 | 0.05 | 93 | 1004.7 |
| 20260505114505 | 3 | 350 | 0.0 | 4.8 | 0.00 | 0.15 | 0.05 | 90 | 1004.4 |
| 20260505113003 | 3 | 288 | 0.0 | 6.4 | 0.00 | 0.15 | 0.05 | 89 | 1004.2 |
| 20260505111503 | 4 | 276 | 4.8 | 11.3 | 0.00 | 0.15 | 0.05 | 89 | 1004.0 |
| 20260505101600 | 4 | 176 | 8.0 | 16.1 | 0.00 | 0.15 | 0.05 | 92 | 1003.3 |
| 20260505100055 | 4 | 210 | 8.0 | 17.7 | 0.00 | 0.15 | 0.05 | 91 | 1003.1 |
| 20260505094606 | 4 | 213 | 4.8 | 9.7 | 0.00 | 0.15 | 0.05 | 92 | 1003.1 |
| 20260505093055 | 4 | 195 | 3.2 | 9.7 | 0.00 | 0.15 | 0.05 | 92 | 1003.2 |
| 20260505091547 | 4 | 200 | 6.4 | 11.3 | 0.00 | 0.15 | 0.05 | 91 | 1003.4 |
| 20260505090047 | 4 | 203 | 3.2 | 8.0 | 0.00 | 0.15 | 0.05 | 94 | 1003.3 |
| 20260505084551 | 4 | 207 | 3.2 | 6.4 | 0.00 | 0.15 | 0.05 | 94 | 1003.7 |
| 20260505083048 | 4 | 191 | 0.0 | 3.2 | 0.00 | 0.15 | 0.05 | 93 | 1004.0 |
| 20260505081535 | 4 | 91 | 0.0 | 6.4 | 0.00 | 0.15 | 0.05 | 93 | 1004.3 |
| 20260505080044 | 5 | 311 | 0.0 | 1.6 | 0.00 | 0.15 | 0.05 | 93 | 1004.5 |
| 20260505074531 | 5 | 270 | 0.0 | 1.6 | 0.00 | 0.15 | 0.05 | 93 | 1004.6 |
| 20260505073035 | 5 | 342 | 1.6 | 4.8 | 0.00 | 0.15 | 0.05 | 93 | 1004.7 |
| 20260505071542 | 5 | 335 | 0.0 | 1.6 | 0.03 | 0.15 | 0.05 | 93 | 1004.7 |
| 20260505070027 | 5 | 69 | 3.2 | 6.4 | 0.05 | 0.15 | 0.05 | 92 | 1004.7 |
| 20260505064533 | 5 | 359 | 0.0 | 1.6 | 0.05 | 0.15 | 0.05 | 93 | 1004.9 |
| 20260505063024 | 5 | 350 | 0.0 | 1.6 | 0.05 | 0.15 | 0.05 | 92 | 1004.9 |
| 20260505061509 | 5 | 354 | 3.2 | 8.0 | 0.03 | 0.13 | 0.03 | 91 | 1004.7 |
| 20260505060008 | 5 | 55 | 0.0 | 3.2 | 0.00 | 0.10 | 0.00 | 91 | 1004.9 |
| 20260505054503 | 5 | 47 | 4.8 | 8.0 | 0.00 | 0.10 | 0.10 | 90 | 1004.9 |
| 20260505053002 | 5 | 358 | 4.8 | 8.0 | 0.00 | 0.10 | 0.10 | 89 | 1004.8 |
| 20260505051501 | 5 | 19 | 1.6 | 6.4 | 0.00 | 0.10 | 0.10 | 89 | 1004.7 |
| 20260505041557 | 5 | 302 | 0.0 | 0.0 | 0.00 | 0.00 | 0.10 | 89 | 1004.2 |
| 20260505034554 | 5 | 351 | 3.2 | 16.1 | 0.10 | 0.10 | 0.10 | 85 | 1003.7 |
| 20260505033056 | 5 | 309 | 1.6 | 6.4 | 0.10 | 0.10 | 0.10 | 87 | 1004.2 |
| 20260505031558 | 5 | 347 | 3.2 | 12.9 | 0.10 | 0.10 | 0.10 | 85 | 1003.8 |
| 20260505030052 | 6 | 25 | 6.4 | 12.9 | 0.03 | 0.03 | 0.03 | 84 | 1003.6 |
| 20260505024551 | 6 | 354 | 1.6 | 9.7 | 0.00 | 0.00 | 0.00 | 79 | 1003.6 |
| 20260505023047 | 6 | 335 | 0.0 | 0.0 | 0.00 | 0.00 | 0.00 | 76 | 1003.3 |
| 20260505021543 | 6 | 30 | 4.8 | 11.3 | 0.00 | 0.00 | 0.00 | 74 | 1003.2 |
| 20260505020042 | 7 | 14 | 6.4 | 14.5 | 0.00 | 0.00 | 0.00 | 72 | 1003.3 |
| 20260505014600 | 7 | 350 | 6.4 | 12.9 | 0.00 | 0.00 | 0.00 | 71 | 1003.0 |
| 20260505013042 | 7 | 82 | 11.3 | 19.3 | 0.00 | 0.00 | 0.00 | 69 | 1002.9 |
| 20260505011546 | 8 | 24 | 12.9 | 22.5 | 0.00 | 0.00 | 0.00 | 60 | 1002.9 |
| 20260505010036 | 10 | 345 | 1.6 | 11.3 | 0.00 | 0.00 | 0.00 | 53 | 1002.2 |
| 20260505004535 | 10 | 346 | 3.2 | 14.5 | 0.00 | 0.00 | 0.00 | 55 | 1001.9 |
| 20260505003033 | 10 | 360 | 11.3 | 24.1 | 0.00 | 0.00 | 0.00 | 52 | 1001.4 |
| 20260505001541 | 11 | 349 | 22.5 | 32.2 | 0.00 | 0.00 | 0.00 | 48 | 1001.3 |
| 20260505000033 | 11 | 349 | 24.1 | 37.0 | 0.00 | 0.00 | 0.00 | 45 | 1001.1 |
| 20260504234532 | 12 | 56 | 24.1 | 32.2 | 0.00 | 0.00 | 0.00 | 41 | 1001.1 |
| 20260504233032 | 12 | 33 | 6.4 | 16.1 | 0.00 | 0.00 | 0.00 | 43 | 1000.9 |
| 20260504231531 | 12 | 90 | 14.5 | 38.6 | 0.00 | 0.00 | 0.00 | 42 | 1001.3 |
| 20260504230030 | 13 | 123 | 3.2 | 6.4 | 0.00 | 0.00 | 0.00 | 39 | 1000.4 |
| 20260504224536 | 13 | 359 | 14.5 | 27.4 | 0.00 | 0.00 | 0.00 | 40 | 1000.3 |
| 20260504223029 | 15 | 1 | 6.4 | 14.5 | 0.00 | 0.00 | 0.00 | 33 | 1000.1 |
| 20260504221528 | 15 | 335 | 1.6 | 11.3 | 0.00 | 0.00 | 0.00 | 31 | 1000.0 |
| 20260504220027 | 15 | 51 | 9.7 | 16.1 | 0.00 | 0.00 | 0.00 | 31 | 1000.1 |
| 20260504214528 | 16 | 51 | 6.4 | 25.7 | 0.00 | 0.00 | 0.00 | 28 | 999.9 |
| 20260504213025 | 16 | 46 | 17.7 | 27.4 | 0.00 | 0.00 | 0.00 | 28 | 999.9 |
| 20260504211523 | 16 | 36 | 25.7 | 35.4 | 0.00 | 0.00 | 0.00 | 28 | 1000.0 |
| 20260504210034 | 16 | 46 | 16.1 | 24.1 | 0.00 | 0.00 | 0.00 | 28 | 1000.1 |
| 20260504204530 | 15 | 333 | 12.9 | 24.1 | 0.00 | 0.00 | 0.00 | 29 | 1000.3 |
| 20260504203025 | 15 | 330 | 19.3 | 38.6 | 0.00 | 0.00 | 0.00 | 30 | 1000.4 |
| 20260504201520 | 16 | 337 | 22.5 | 40.2 | 0.00 | 0.00 | 0.00 | 29 | 1000.4 |
| 20260504200018 | 16 | 276 | 14.5 | 30.6 | 0.00 | 0.00 | 0.00 | 23 | 1000.4 |
| 20260504194518 | 16 | 340 | 3.2 | 30.6 | 0.00 | 0.00 | 0.00 | 24 | 1000.6 |
| 20260504193017 | 17 | 161 | 12.9 | 22.5 | 0.00 | 0.00 | 0.00 | 22 | 1000.3 |
| 20260504191515 | 17 | 125 | 8.0 | 22.5 | 0.00 | 0.00 | 0.00 | 22 | 1000.7 |
| 20260504190012 | 16 | 53 | 11.3 | 16.1 | 0.00 | 0.00 | 0.00 | 24 | 1000.7 |
| 20260504184510 | 15 | 63 | 14.5 | 22.5 | 0.00 | 0.00 | 0.00 | 27 | 1001.0 |
| 20260504183009 | 15 | 63 | 11.3 | 20.9 | 0.00 | 0.00 | 0.00 | 31 | 1001.4 |
| 20260504181507 | 16 | 268 | 0.0 | 16.1 | 0.00 | 0.00 | 0.00 | 23 | 1001.6 |
| 20260504180004 | 16 | 330 | 3.2 | 11.3 | 0.00 | 0.00 | 0.00 | 26 | 1001.6 |
| 20260504174506 | 16 | 249 | 11.3 | 20.9 | 0.00 | 0.00 | 0.00 | 24 | 1001.8 |
| 20260504173110 | 17 | 178 | 4.8 | 12.9 | 0.00 | 0.00 | 0.00 | 26 | 1002.2 |
| 20260504171602 | 16 | 214 | 12.9 | 25.7 | 0.00 | 0.00 | 0.00 | 27 | 1002.5 |